Location: Beaver Brook Trail
(44.0290°N, 71.8137°W)
Time: 02:12:23
(UTC+00:00)

SR - Pass Details

Date: 19 November 2024
Orbit: 573 x 858 km, 66.7° (Epoch: 03 December)

Event Time Altitude Azimuth Distance (km) Brightness Sun altitude
Exits shadow 08:29:22 12° 20° (NNE) 2,170 ? -35.5°
Maximum altitude 08:30:29 12° 33° (NNE) 2,142 ? -35.3°
Drops below altitude 10° 08:32:42 10° 58° (ENE) 2,344 ? -34.9°
Sets 08:36:49 0° 87° (E) 3,334 ? -34.1°
